Showing default

YUNHAI 2-1D, 43912

Orbit data source: Space-Track

YUNHAI 2-1D, 43912 is a payload satellite owned by CASC (CN) in LEO that was launched on Sat, 29 Dec 2018 UTC via a CHANG ZHENG 2D/YZ-3 launch vehicle from the Jiuquan Satellite Launch Center, China (JSC). Payload-class satellites include a variety of spacecraft equipped with specific instruments for various scientific and technological missions. These include communications satellites like Starlink; space stations such as the ISS; scientific satellites like the Hubble; Earth observation satellites from companies like Planet Labs, Umbra, and HawkEye 360; GPS; miniature CubeSats for education and research; and military/defense satellites.

Loading next visibility...
Identifier
43912, 2018-112D
Orbit
LEO
Country
Flag of CNCN / PRC
Related business
Manufacturer
DFH Shenzhen
Mission
Operational Defense Meteo Radio Occ.
Bus & Motor
YH-2, Unknown motor
Mass
~100 kg wet, ~100 kg dry
Launch date (UTC)
2018-12-29 (7 years ago)
Launch vehicle
CHANG ZHENG 2D/YZ-3
Launch site
Jiuquan Satellite Launch Center, China (JSC)
Object type
Payload
Rocket body
Debris
Shape & HBR
Box + 2 Pan, 0.5 m
Radar Cross Section
0.166 m², Large (>1 m²)

Expand to show TLE details & history
Last TLE update: 13 hours ago

TLE from 13 hours ago
0 YUNHAI 2-1D
1 43912U 18112D   26124.83783089  .00000064  00000-0  88376-4 0  9999
2 43912  50.0087 111.4434 0015458 194.4226 165.6250 14.29014278381386
Epoch: 2026-05-04T20:06Z
TLE epoch observation values (Epoch: 2026-05-04T20:06:28.588Z)
Latitude
-0.00003°
Longitude
-52.89703°
Altitude
806.301 km
Speed
7.446 km/s
True Right ascension
07h 25m 46s
True Declination
0° 00' 00"
Sunlit
Object was in daylight at epoch
Visualization orbit readout
Latitude
Unknown
Longitude
Unknown
Altitude
Unknown
Speed
Unknown
Apparent Right ascension
Unknown
Apparent Declination
Unknown
Sunlit
N/A
Visualization observer readout
Local Sidereal Time
16:33:56
Azimuth
Unknown
Elevation
Unknown
Doppler factor
Unknown
Orbital elements
Apogee altitude
806.855 km
Perigee altitude
784.677 km
Semi-major axis
7,173.903 km
Eccentricity
0.00155
Inclination
50.0087°
RAAN
111.4434°
Arg. of periapsis
194.4226°
True anomaly
165.66889°
Mean anomaly
165.625°
Eccentric anomaly
165.64696°
Mean motion
3.57199 °/min
Orbital period
100.78 mins
BSTAR
0.000088376
Loading maneuver chart data...
Computing Atmospheric mass density...
Loading historical data...
Loading historical data...
Loading historical data...
Loading historical data...
Loading historical data...
Loading historical data...
Loading historical data...

Documentation

Showing up to 5 results
|